| time (UTC) | temp F | wind direction | speed knots | gust knots | rain 1hr in | rain 24hr in | rain mn in | humidity % | barometer mb |
| 20260507081504 | 66 | 229 | 0.0 | 2.6 | 0.02 | 0.06 | 0.06 | 95 | 1009.7 |
| 20260507080004 | 66 | 127 | 0.0 | 1.7 | 0.03 | 0.06 | 0.06 | 94 | 1009.6 |
| 20260507074505 | 66 | 0 | 0.0 | 0.0 | 0.05 | 0.05 | 0.05 | 93 | 1010.3 |
| 20260507073005 | 66 | 135 | 0.0 | 0.9 | 0.05 | 0.05 | 0.05 | 92 | 1009.9 |
| 20260507071505 | 67 | 231 | 0.0 | 2.6 | 0.04 | 0.04 | 0.04 | 90 | 1009.5 |
| 20260507070010 | 68 | 241 | 0.9 | 5.2 | 0.03 | 0.03 | 0.03 | 87 | 1009.3 |
| 20260507064506 | 70 | 186 | 0.0 | 5.2 | 0.00 | 0.00 | 0.00 | 83 | 1010.0 |
| 20260507063006 | 70 | 158 | 0.0 | 2.6 | 0.00 | 0.00 | 0.00 | 81 | 1010.1 |
| 20260507061505 | 70 | 231 | 0.0 | 0.9 | 0.00 | 0.00 | 0.00 | 81 | 1010.7 |
| 20260507060005 | 70 | 164 | 0.0 | 0.9 | 0.00 | 0.00 | 0.00 | 80 | 1010.6 |
| 20260507054505 | 70 | 188 | 0.0 | 0.9 | 0.00 | 0.00 | 0.00 | 80 | 1010.6 |
| 20260507053005 | 70 | 210 | 0.0 | 0.9 | 0.00 | 0.00 | 0.00 | 79 | 1010.7 |
| 20260507051526 | 71 | 182 | 0.0 | 2.6 | 0.00 | 0.00 | 0.00 | 79 | 1010.7 |
| 20260507050006 | 71 | 170 | 0.0 | 1.7 | 0.00 | 0.00 | 0.00 | 79 | 1010.7 |
| 20260507044526 | 71 | 175 | 0.0 | 0.9 | 0.00 | 0.00 | 0.00 | 78 | 1010.7 |
| 20260507043005 | 71 | 193 | 0.0 | 3.5 | 0.00 | 0.00 | 0.00 | 77 | 1010.6 |
| 20260507041526 | 71 | 231 | 0.9 | 3.5 | 0.00 | 0.00 | 0.00 | 77 | 1010.8 |
| 20260507040006 | 71 | 177 | 0.0 | 4.3 | 0.00 | 0.00 | 0.00 | 76 | 1010.6 |
| 20260507034505 | 71 | 198 | 0.0 | 2.6 | 0.00 | 0.00 | 0.00 | 75 | 1010.8 |
| 20260507033026 | 71 | 208 | 0.0 | 1.7 | 0.00 | 0.00 | 0.00 | 74 | 1010.7 |
| 20260507031505 | 72 | 188 | 0.0 | 4.3 | 0.00 | 0.00 | 0.00 | 73 | 1010.9 |
| 20260507030005 | 72 | 227 | 0.0 | 3.5 | 0.00 | 0.00 | 0.00 | 72 | 1010.7 |
| 20260507024527 | 72 | 231 | 0.0 | 4.3 | 0.00 | 0.00 | 0.00 | 71 | 1010.7 |
| 20260507023025 | 72 | 197 | 0.0 | 2.6 | 0.00 | 0.00 | 0.00 | 70 | 1010.9 |
| 20260507021505 | 72 | 198 | 0.0 | 2.6 | 0.00 | 0.00 | 0.00 | 69 | 1010.9 |
| 20260507020005 | 73 | 206 | 0.9 | 2.6 | 0.00 | 0.00 | 0.00 | 68 | 1010.6 |
| 20260507014505 | 73 | 225 | 0.0 | 5.2 | 0.00 | 0.00 | 0.00 | 67 | 1010.9 |
| 20260507013005 | 73 | 185 | 0.0 | 2.6 | 0.00 | 0.00 | 0.00 | 66 | 1010.7 |
| 20260507011505 | 74 | 249 | 0.9 | 4.3 | 0.00 | 0.00 | 0.00 | 64 | 1010.9 |
| 20260507010005 | 75 | 184 | 0.9 | 5.2 | 0.00 | 0.00 | 0.00 | 63 | 1010.7 |
| 20260507004504 | 75 | 188 | 0.9 | 5.2 | 0.00 | 0.00 | 0.00 | 63 | 1010.7 |
| 20260507003004 | 76 | 245 | 0.9 | 4.3 | 0.00 | 0.00 | 0.00 | 64 | 1010.5 |
| 20260507001504 | 76 | 226 | 1.7 | 7.0 | 0.00 | 0.00 | 0.00 | 67 | 1010.2 |
| 20260507000005 | 76 | 257 | 0.9 | 7.0 | 0.00 | 0.00 | 0.00 | 68 | 1010.0 |
| 20260506234526 | 77 | 254 | 0.9 | 6.1 | 0.00 | 0.00 | 0.00 | 69 | 1010.1 |
| 20260506233005 | 77 | 223 | 0.9 | 7.0 | 0.00 | 0.00 | 0.00 | 70 | 1010.0 |
| 20260506231506 | 77 | 246 | 0.9 | 4.3 | 0.00 | 0.00 | 0.00 | 71 | 1009.8 |
| 20260506230004 | 78 | 214 | 0.9 | 7.0 | 0.00 | 0.00 | 0.00 | 71 | 1009.6 |
| 20260506224504 | 78 | 273 | 0.0 | 4.3 | 0.00 | 0.00 | 0.00 | 71 | 1009.7 |
| 20260506223005 | 78 | 220 | 0.9 | 4.3 | 0.00 | 0.00 | 0.00 | 71 | 1009.6 |
| 20260506221504 | 79 | 249 | 0.9 | 4.3 | 0.00 | 0.00 | 0.00 | 69 | 1009.6 |
| 20260506220004 | 79 | 239 | 0.9 | 2.6 | 0.00 | 0.00 | 0.00 | 68 | 1009.7 |
| 20260506214504 | 80 | 230 | 0.0 | 4.3 | 0.00 | 0.00 | 0.00 | 65 | 1009.7 |
| 20260506213005 | 80 | 156 | 0.0 | 2.6 | 0.00 | 0.00 | 0.00 | 62 | 1009.8 |
| 20260506211504 | 81 | 153 | 0.9 | 2.6 | 0.00 | 0.00 | 0.00 | 60 | 1009.8 |
| 20260506210005 | 81 | 169 | 1.7 | 6.1 | 0.00 | 0.00 | 0.00 | 61 | 1010.2 |
| 20260506204504 | 81 | 200 | 0.9 | 5.2 | 0.00 | 0.00 | 0.00 | 62 | 1010.4 |
| 20260506203025 | 81 | 225 | 0.9 | 7.0 | 0.00 | 0.00 | 0.00 | 61 | 1010.7 |
| 20260506201525 | 82 | 156 | 0.9 | 6.1 | 0.00 | 0.00 | 0.00 | 63 | 1010.9 |
| 20260506200025 | 82 | 209 | 0.9 | 5.2 | 0.00 | 0.00 | 0.00 | 60 | 1011.0 |
| 20260506194504 | 81 | 230 | 1.7 | 7.0 | 0.00 | 0.00 | 0.00 | 63 | 1011.3 |
| 20260506193005 | 81 | 148 | 0.9 | 4.3 | 0.00 | 0.00 | 0.00 | 63 | 1011.5 |
| 20260506191504 | 81 | 250 | 0.9 | 6.1 | 0.00 | 0.00 | 0.00 | 63 | 1011.6 |
| 20260506190025 | 81 | 176 | 0.9 | 5.2 | 0.00 | 0.00 | 0.00 | 62 | 1011.8 |
| 20260506184525 | 80 | 187 | 1.7 | 4.3 | 0.00 | 0.00 | 0.00 | 64 | 1011.9 |
| 20260506183005 | 81 | 169 | 0.9 | 5.2 | 0.00 | 0.00 | 0.00 | 61 | 1012.1 |
| 20260506181505 | 81 | 169 | 1.7 | 4.3 | 0.00 | 0.00 | 0.00 | 62 | 1012.4 |
| 20260506180026 | 81 | 184 | 1.7 | 6.1 | 0.00 | 0.00 | 0.00 | 61 | 1012.7 |
| 20260506174525 | 80 | 189 | 1.7 | 7.8 | 0.00 | 0.00 | 0.00 | 63 | 1012.6 |
| 20260506173005 | 80 | 192 | 0.9 | 4.3 | 0.00 | 0.00 | 0.00 | 65 | 1012.6 |
| 20260506171504 | 79 | 254 | 1.7 | 5.2 | 0.00 | 0.00 | 0.00 | 67 | 1012.9 |
| 20260506164504 | 78 | 225 | 1.7 | 8.7 | 0.00 | 0.00 | 0.00 | 69 | 1013.2 |
| 20260506163004 | 77 | 269 | 1.7 | 4.3 | 0.00 | 0.00 | 0.00 | 71 | 1013.4 |
| 20260506161525 | 76 | 229 | 2.6 | 10.4 | 0.00 | 0.00 | 0.00 | 71 | 1013.8 |
| 20260506160004 | 76 | 194 | 1.7 | 7.8 | 0.00 | 0.00 | 0.00 | 72 | 1014.2 |
| 20260506154504 | 76 | 176 | 1.7 | 5.2 | 0.00 | 0.00 | 0.00 | 74 | 1014.5 |
| 20260506153004 | 73 | 236 | 0.9 | 6.1 | 0.00 | 0.00 | 0.00 | 77 | 1014.4 |
| 20260506151504 | 73 | 181 | 1.7 | 4.3 | 0.00 | 0.00 | 0.00 | 76 | 1014.5 |
| 20260506150005 | 74 | 167 | 1.7 | 5.2 | 0.00 | 0.00 | 0.00 | 74 | 1014.7 |
| 20260506144504 | 74 | 163 | 1.7 | 9.6 | 0.00 | 0.00 | 0.00 | 73 | 1014.7 |
| 20260506143004 | 74 | 227 | 1.7 | 7.0 | 0.00 | 0.00 | 0.00 | 73 | 1014.3 |
| 20260506141504 | 74 | 192 | 2.6 | 8.7 | 0.00 | 0.00 | 0.00 | 72 | 1014.2 |
| 20260506140004 | 74 | 210 | 1.7 | 8.7 | 0.00 | 0.00 | 0.00 | 74 | 1014.2 |
| 20260506134504 | 73 | 201 | 1.7 | 9.6 | 0.00 | 0.00 | 0.00 | 76 | 1014.1 |
| 20260506133004 | 72 | 244 | 0.9 | 6.1 | 0.00 | 0.00 | 0.00 | 78 | 1014.0 |
| 20260506131505 | 71 | 222 | 0.9 | 4.3 | 0.00 | 0.00 | 0.00 | 81 | 1013.9 |
| 20260506130024 | 70 | 235 | 1.7 | 4.3 | 0.00 | 0.00 | 0.00 | 82 | 1014.1 |
| 20260506124504 | 69 | 242 | 1.7 | 4.3 | 0.00 | 0.00 | 0.00 | 83 | 1014.5 |
| 20260506123004 | 68 | 234 | 0.9 | 7.0 | 0.00 | 0.00 | 0.00 | 84 | 1014.5 |
| 20260506121504 | 67 | 242 | 0.9 | 4.3 | 0.00 | 0.00 | 0.00 | 86 | 1014.4 |
| 20260506120003 | 66 | 231 | 0.0 | 3.5 | 0.00 | 0.00 | 0.00 | 88 | 1014.7 |
| 20260506114503 | 65 | 252 | 0.0 | 2.6 | 0.00 | 0.00 | 0.00 | 89 | 1014.9 |
| 20260506113004 | 64 | 281 | 0.9 | 4.3 | 0.00 | 0.00 | 0.00 | 90 | 1014.7 |
| 20260506111504 | 63 | 206 | 0.0 | 4.3 | 0.00 | 0.00 | 0.00 | 91 | 1014.5 |
| 20260506110003 | 62 | 206 | 0.0 | 1.7 | 0.00 | 0.00 | 0.00 | 92 | 1014.3 |
| 20260506104525 | 62 | 276 | 0.0 | 2.6 | 0.00 | 0.00 | 0.00 | 92 | 1014.5 |
| 20260506103004 | 62 | 210 | 0.0 | 0.9 | 0.00 | 0.00 | 0.00 | 92 | 1014.5 |
| 20260506101505 | 62 | 255 | 0.0 | 1.7 | 0.00 | 0.00 | 0.00 | 91 | 1014.3 |
| 20260506100005 | 62 | 296 | 0.0 | 0.9 | 0.00 | 0.00 | 0.00 | 91 | 1014.1 |
| 20260506094524 | 62 | 279 | 0.0 | 1.7 | 0.00 | 0.00 | 0.00 | 91 | 1014.3 |
| 20260506093025 | 63 | 212 | 0.0 | 3.5 | 0.00 | 0.00 | 0.00 | 90 | 1014.3 |
| 20260506091525 | 63 | 247 | 0.0 | 3.5 | 0.00 | 0.00 | 0.00 | 90 | 1014.6 |
| 20260506090004 | 63 | 203 | 0.0 | 2.6 | 0.00 | 0.00 | 0.00 | 90 | 1014.7 |
| 20260506084524 | 63 | 229 | 0.0 | 3.5 | 0.00 | 0.00 | 0.00 | 90 | 1014.6 |
| 20260506083005 | 63 | 255 | 0.0 | 3.5 | 0.00 | 0.00 | 0.00 | 90 | 1014.5 |